Weather History for Lancaster, OH

Change the Weather History Date:

Monday, August 5, 2013

  Actual Average Record
Temperature  
Mean Temperature 62 °F -  
Max Temperature 77 °F 83 °F 97 °F (1955)
Min Temperature 48 °F 59 °F 45 °F (1972)
Degree Days  
Heating Degree Days 4    
Growing Degree Days 12 (Base 50)    
Moisture  
Dew Point 52 °F    
Average Humidity 85    
Maximum Humidity 100    
Minimum Humidity 46    
Precipitation  
Precipitation 0.02 in - - ()
Sea Level Pressure  
Sea Level Pressure 30.12 in    
Wind  
Wind Speed 0 mph (ESE)    
Max Wind Speed 7 mph    
Max Gust Speed -    
Visibility 5 miles    
Events Fog , Rain    
Averages and records for this station are not official NWS values.
T = Trace of Precipitation, MM = Missing Value Source: NWS Daily Summary

Daily Weather History Graph

Daily Weather History Graph

Search for Another Location

Airport:

Trip Planner

Search our weather history database for the weather conditions in past years. The results will help you decide how hot, cold, wet, or windy it might be!

Date:

Astronomy

Aug. 05, 2013 Rise Set
Actual Time 6:33 AM EDT 8:39 PM EDT
Civil Twilight 6:03 AM EDT 9:08 PM EDT
Nautical Twilight 5:27 AM EDT 9:45 PM EDT
Astronomical Twilight 4:47 AM EDT 10:24 PM EDT
Moon 5:27 AM EDT (8/5) 7:38 PM EDT (8/5)
Length of Visible Light 15h 04m
Length of Day
14h 05m
Waning Crescent, 1% of the Moon is Illuminated
Aug 5
Waning Crescent
Aug 6
New
Aug 14
First Quarter
Aug 20
Full
Aug 28
Last Quarter

Hourly Weather History & Observations

Time (EDT) Temp. Dew Point Humidity Pressure Visibility Wind Dir Wind Speed Gust Speed Precip Events Conditions
12:53 AM 55.0 °F 53.1 °F 93% 30.13 in 7.0 mi Calm Calm - N/A   Clear
1:33 AM 51.8 °F 51.8 °F 100% 30.14 in 2.5 mi Calm Calm - N/A   Clear
1:40 AM 51.8 °F 50.0 °F 94% 30.14 in 3.0 mi Calm Calm - N/A   Clear
1:53 AM 51.1 °F 50.0 °F 96% 30.13 in 3.0 mi Calm Calm - N/A   Clear
2:02 AM 51.8 °F 50.0 °F 94% 30.14 in 1.2 mi Calm Calm - N/A   Clear
2:04 AM 51.8 °F 50.0 °F 94% 30.14 in 0.8 mi Calm Calm - N/A   Clear
2:26 AM 51.8 °F 50.0 °F 94% 30.14 in 0.2 mi Calm Calm - N/A Fog Fog
2:53 AM 51.1 °F 50.0 °F 96% 30.13 in 0.8 mi Calm Calm - N/A   Clear
2:55 AM 51.8 °F 50.0 °F 94% 30.14 in 1.2 mi Calm Calm - N/A   Clear
3:13 AM 50.0 °F 48.2 °F 94% 30.13 in 1.0 mi Calm Calm - N/A   Clear
3:24 AM 50.0 °F 48.2 °F 94% 30.13 in 2.0 mi Calm Calm - N/A   Clear
3:35 AM 51.8 °F 50.0 °F 94% 30.13 in 3.0 mi Calm Calm - N/A   Clear
3:53 AM 51.1 °F 50.0 °F 96% 30.13 in 2.5 mi Calm Calm - N/A   Clear
3:58 AM 51.8 °F 51.8 °F 100% 30.14 in 1.8 mi Calm Calm - N/A   Clear
4:10 AM 51.8 °F 50.0 °F 94% 30.14 in 1.0 mi Calm Calm - N/A   Clear
4:18 AM 51.8 °F 50.0 °F 94% 30.14 in 0.5 mi Calm Calm - N/A Fog Fog
4:26 AM 51.8 °F 50.0 °F 94% 30.14 in 1.2 mi Calm Calm - N/A   Clear
4:28 AM 51.8 °F 50.0 °F 94% 30.14 in 3.0 mi Calm Calm - N/A   Clear
4:53 AM 51.1 °F 50.0 °F 96% 30.13 in 2.0 mi Calm Calm - N/A   Clear
5:00 AM 51.8 °F 48.2 °F 88% 30.14 in 1.2 mi Calm Calm - N/A   Clear
5:07 AM 51.8 °F 50.0 °F 94% 30.14 in 2.5 mi Calm Calm - N/A   Clear
5:15 AM 51.8 °F 50.0 °F 94% 30.14 in 5.0 mi Calm Calm - N/A   Clear
5:53 AM 51.1 °F 50.0 °F 96% 30.13 in 5.0 mi Calm Calm - N/A   Clear
6:19 AM 50.0 °F 48.2 °F 94% 30.14 in 2.0 mi Calm Calm - N/A   Clear
6:27 AM 50.0 °F 48.2 °F 94% 30.14 in 1.2 mi Calm Calm - N/A   Clear
6:29 AM 50.0 °F 48.2 °F 94% 30.14 in 0.8 mi Calm Calm - N/A   Clear
6:53 AM 48.9 °F 48.0 °F 97% 30.14 in 0.2 mi Calm Calm - N/A Fog Fog
7:04 AM 50.0 °F 48.2 °F 94% 30.14 in 0.2 mi Calm Calm - N/A Fog Fog
7:18 AM 51.8 °F 51.8 °F 100% 30.14 in 0.2 mi Calm Calm - N/A Fog Fog
7:28 AM 51.8 °F 51.8 °F 100% 30.15 in 1.5 mi Calm Calm - N/A   Clear
7:30 AM 51.8 °F 51.8 °F 100% 30.15 in 4.0 mi Calm Calm - N/A   Clear
7:53 AM 55.9 °F 54.0 °F 93% 30.15 in 5.0 mi Calm Calm - N/A   Clear
8:53 AM 61.0 °F 57.0 °F 87% 30.15 in 10.0 mi Calm Calm - N/A   Clear
9:53 AM 66.9 °F 55.9 °F 68% 30.14 in 10.0 mi SE 6.9 mph - 0.01 in   Clear
10:53 AM 70.0 °F 55.9 °F 61% 30.13 in 10.0 mi South 5.8 mph - N/A   Clear
11:53 AM 72.0 °F 54.0 °F 53% 30.12 in 10.0 mi Calm Calm - N/A   Clear
12:53 PM 73.9 °F 54.0 °F 50% 30.10 in 10.0 mi NE 3.5 mph - N/A   Clear
1:53 PM 73.9 °F 52.0 °F 46% 30.08 in 10.0 mi East 3.5 mph - N/A   Mostly Cloudy
2:53 PM 75.0 °F 55.0 °F 50% 30.07 in 10.0 mi Calm Calm - N/A   Overcast
3:53 PM 75.9 °F 55.0 °F 48% 30.06 in 10.0 mi Calm Calm - N/A   Partly Cloudy
4:53 PM 73.9 °F 53.1 °F 48% 30.06 in 10.0 mi Calm Calm - N/A   Partly Cloudy
5:53 PM 73.9 °F 55.0 °F 52% 30.05 in 10.0 mi Calm Calm - N/A   Clear
6:53 PM 72.0 °F 55.0 °F 55% 30.05 in 10.0 mi Calm Calm - N/A   Clear
7:53 PM 69.1 °F 59.0 °F 70% 30.02 in 10.0 mi ESE 3.5 mph - N/A   Clear
8:53 PM 64.9 °F 57.9 °F 78% 30.03 in 10.0 mi Calm Calm - N/A   Clear
9:53 PM 64.0 °F 60.1 °F 87% 30.03 in 10.0 mi Calm Calm - N/A   Mostly Cloudy
10:53 PM 64.0 °F 60.1 °F 87% 30.01 in 10.0 mi Calm Calm - N/A   Mostly Cloudy
11:53 PM 64.9 °F 61.0 °F 87% 30.01 in 8.0 mi SSE 3.5 mph - 0.01 in Rain Light Rain